Location: Bushrod
(6.3500°N, 10.7833°W)
Time: 00:48:24
(UTC+00:00)

H-II Stage 2 - Pass Details

Date: 17 September 2019
Orbit: 268 x 26374 km, 25.2° (Epoch: 15 October)

Event Time Altitude Azimuth Distance (km) Brightness Sun altitude
Rises 19:13:16 0° 241° (WSW) 18,252 11.6 -8.6°
Reaches altitude 10° 19:43:06 10° 237° (WSW) 10,429 10.0 -16.0°
Maximum altitude 20:06:57 52° 166° (SSE) 1,614 4.9 -21.9°
Enters shadow 20:08:45 39° 118° (ESE) 1,477 4.5 -22.4°
